User: anonymous   Login
Location: Unspecified
(0.0000°N, 0.0000°E)
Time: 09:15:46
(UTC+00:00)
Language:

LAPAN-TUBSAT - Orbit

View from above orbital plane
View from above orbital plane
View from above satellite
View from above satellite

Ground track
Ground track

The orbit data is extracted from the following two-line orbital elements,

1 29709U 07001A   17086.83753426 +.00000091 +00000-0 +17789-4 0  9991
2 29709 097.6950 064.7108 0013581 005.9581 354.1796 14.82040940551937
Epoch (UTC): 27 March 2017 20:06:02
Eccentricity: 0.0013581
inclination: 97.6950°
perigee height: 613 km
apogee height: 632 km
right ascension of ascending node: 64.7108°
argument of perigee: 5.9581°
revolutions per day: 14.82040940
mean anomaly at epoch: 354.1796°
orbit number at epoch: 55193

The dashed part of the orbit path shows where the satellite is in the earth's shadow,  

DLR